Location: Sternwarte_Laufen
(47.9344°N, 12.9346°E)
Time: 03:07:43
(UTC+02:00)

ISS - Pass Details

Date: 09 July 2025
Orbit: 413 x 417 km, 51.6° (Epoch: 12 July)

Event Time Altitude Azimuth Distance (km) Brightness Sun altitude
Rises 02:00:59 0° 288° (WNW) 2,357 0.1 -18.9°
Reaches altitude 10° 02:03:08 10° 294° (WNW) 1,494 -0.8 -18.8°
Maximum altitude 02:06:24 48° 10° (N) 552 -2.8 -18.7°
Drops below altitude 10° 02:09:39 10° 87° (E) 1,494 -0.8 -18.6°
Sets 02:11:48 0° 93° (E) 2,357 0.2 -18.5°
